Probability
0 0 0 0 0 0 0 0 0 0 0 0 0 0 0 0 0 0 0 0 0 0 0 0 0 0 0 0 0 0 0 0 0 0 0 0 0 0 0 0 0 0 0
0 0 0 0 0 0 0 0 0 0 0 0 0 0 0 0 0 0 0 0 0 0 0 0 0 0 0 0 0 0 0 0 0 0 0 0 0 0 0 0 0 0 0
0 0 0 0 0 0 0 0 0 0 0 0 0 0 0 0 0 0 0 0 0 0 0 0 0 0 0 0 0 0 0 0 0 0 0 0 0 0 0 0 0 0 0
0 0 0 0 0 0 0 0 0 0 0 0 0 0 0 0 0 0 0 0 0 0 0 0 0 0 0 0 0 0 0 0 0 0 0 0 0 0 0 0 0 0 0
0 0 0 0 0 0 0 0 0 0 0 0 0 0 0 0 0 0 0 0 0 0 0 0 0 0 0 0 0 0 0 0 0 0 0 0 0 0 0 0 0 0 0
0 0 0 0 0 0 0 0 0 0 0 0 0 0 0 0 0 0 0 0 0 0 0 0 0 0 0 0 0 0 0 0 0 0 0 0 0 0 0 0 0 0 0
0 0 0 0 0 0 0 0 0 0 0 0 0 0 0 0 0 0 0 0 0 0 0 0 0 0 0 0 0 0 0 0 0 0 0 0 0 0 0 0 0 0 0
0 0 0 0 0 0 0 0 0 0 0 0 0 0 0 0 0 0 0 0 0 0 0 0 0 0 0 0 0 0 0 0 0 0 0 0 0 0 0 0 0 0 0
0 0 0 0 0 0 0 0 0 0 0 0 0 0 0 0 0 0 0 0 0 0 0 0 0 0 0 0 0 0 0 0 0 0 0 0 0 0 0 0 0 0 0
0 0 0 0 0 0 0 0 0 0 0 0 0 0 0 0 0 0 0 0 0 0 0 0 0 0 0 0 0 0 0 0 0 0 0 0 0 0 0 0 0 0 0
0 0 0 0 0 0 0 0 0 0 0 0 0 0 0 0 0 0 0 0 0 0 0 0 0 0 0 0 0 0 0 0 0 0 0 0 0 0 0 0 0 0 0
0 0 0 0 0 0 0 0 0 0 0 0 0 0 0 0 0 0 0 0 0 0 0 0 0 0 0 0 0 0 0 0 0 0 0 0 0 0 0 0 0 0 0
0 0 0 0 0 0 0 0 0 0 0 0 0 0 0 0 0 0 0 0 0 0 0 0 0 0 0 0 0 0 0 0 0 0 0 0 0 0 0 0 0 0 0
0 0 0 0 0 0 0 0 0 0 0 0 0 0 0 0 0 0 0 0 0 0 0 0 0 0 0 0 0 0 0 0 0 0 0 0 0 0 0 0 0 0 0
0 0 0 0 0 0 0 0 0 0 0 0 0 0 0 0 0 0 0 0 0 0 0 0 0 0 0 0 0 0 0 0 0 0 0 0 0 0 0 0 0 0 0
0 0 0 0 0 0 0 0 0 0 0 0 0 0 0 0 0 0 0 0 0 0 0 0 0 0 0 0 0 0 0 0 0 0 0 0 0 0 0 0 0 0 0
0 0 0 0 0 0 0 0 0 0 0 0 0 0 0 0 0 0 0 0 0 0 0 0 0 0 0 0 0 0 0 0 0 0 0 0 0 0 0 0 0 0 0
0 0 0 0 0 0 0 0 0 0 0 0 0 0 0 0 0 0 0 0 0 0 0 0 0 0 0 0 0 0 0 0 0 0 0 0 0 0 0 0 0 0 0
0 0 0 0 0 0 0 0 0 0 0 0 0 0 0 0 0 0 0 0 0 0 0 0 0 0 0 0 0 0 0 0 0 0 0 0 0 0 0 0 0 0 0
0 0 0 0 0 0 0 0 0 0 0 0 0 0 0 0 0 0 0 0 0 0 0 0 0 0 0 0 0 0 0 0 0 0 0 0 0 0 0 0 0 0 0
0 0 0 0 0 0 0 0 0 0 0 0 0 0 0 0 0 0 0 0 0 0 0 0 0 0 0 0 0 0 0 0 0 0 0 0 0 0 0 0 0 0 0
0 0 0 0 0 0 0 0 0 0 0 0 0 0 0 0 0 0 0 0 0 0 0 0 0 0 0 0 0 0 0 0 0 0 0 0 0 0 0 0 0 0 0
0 0 0 0 0 0 0 0 0 0 0 0 0 0 0 0 0 0 0 0 0 0 0 0 0 0 0 0 0 0 0 0 0 0 0 0 0 0 0 0 0 0 0
0 0 0 0 0 0 0 0 0 0 0 0 0 0 0 0 0 0 0 0 0 0 0 0 0 0 0 0 0 0 0 0 0 0 0 0 0 0 0 0 0 0 0
0 0 0 0 0 0 0 0 0 0 0 0 0 0 0 0 0 0 0 0 0 0 0 0 0 0 0 0 0 0 0 0 0 0 0 0 0 0 0 0 0 0 0
0 0 0 0 0 0 0 0 0 0 0 0 0 0 0 0 0 0 0 0 0 0 0 0 0 0 0 0 0 0 0 0 0 0 0 0 0 0 0 0 0 0 0
Height
5881 5883 5885 5886 5887 5888 5889 5889 5889 5889 5889 5888 5888 5887 5887 5886 5885 5885 5884 5883 5883 5882 5881 5881 5880 5879 5878 5877 5876 5875 5873 5872 5871 5870 5868 5867 5866 5865 5864 5863 5862 5862 5861
5880 5882 5883 5885 5886 5887 5888 5889 5889 5889 5889 5889 5888 5888 5887 5887 5886 5886 5885 5885 5884 5883 5882 5881 5881 5880 5878 5877 5876 5875 5873 5872 5870 5869 5867 5866 5864 5863 5862 5861 5860 5859 5859
5878 5880 5882 5883 5885 5886 5887 5888 5888 5889 5889 5889 5888 5888 5888 5887 5887 5886 5886 5885 5884 5884 5883 5882 5881 5880 5879 5877 5876 5874 5873 5871 5870 5868 5866 5864 5862 5861 5860 5859 5858 5856 5855
5876 5878 5880 5882 5883 5884 5885 5886 5887 5888 5888 5888 5888 5888 5887 5887 5887 5886 5886 5885 5884 5884 5883 5882 5881 5880 5878 5877 5875 5874 5872 5870 5868 5866 5864 5862 5860 5859 5858 5856 5855 5853 5852
5873 5876 5878 5880 5881 5883 5884 5885 5886 5886 5887 5887 5887 5887 5887 5886 5886 5886 5885 5885 5884 5883 5882 5881 5880 5879 5877 5876 5874 5872 5870 5868 5866 5864 5862 5860 5858 5857 5855 5853 5852 5850 5848
5871 5873 5875 5877 5879 5881 5882 5883 5884 5885 5885 5885 5885 5885 5885 5885 5885 5885 5884 5883 5882 5882 5881 5880 5878 5877 5875 5874 5872 5870 5868 5866 5864 5862 5860 5858 5856 5853 5851 5849 5848 5846 5844
5868 5870 5872 5874 5876 5878 5879 5880 5882 5882 5883 5883 5884 5884 5884 5884 5883 5883 5882 5881 5880 5880 5879 5877 5876 5875 5873 5871 5869 5868 5865 5863 5861 5859 5857 5854 5852 5849 5847 5845 5842 5840 5838
5864 5867 5869 5871 5873 5875 5876 5878 5879 5880 5880 5881 5881 5881 5881 5881 5881 5880 5880 5879 5878 5877 5876 5875 5873 5872 5870 5868 5866 5864 5862 5859 5857 5854 5852 5850 5847 5844 5842 5840 5837 5834 5832
5860 5863 5865 5868 5870 5871 5873 5874 5875 5876 5877 5878 5878 5878 5878 5878 5878 5877 5876 5876 5875 5874 5872 5871 5870 5868 5866 5864 5862 5860 5858 5855 5853 5850 5847 5844 5842 5839 5836 5833 5830 5827 5824
5856 5859 5861 5864 5866 5868 5869 5871 5872 5873 5874 5874 5875 5875 5875 5874 5874 5873 5873 5872 5871 5870 5868 5867 5865 5864 5862 5859 5857 5855 5853 5850 5847 5845 5842 5839 5835 5832 5829 5825 5822 5818 5815
5852 5855 5858 5860 5862 5864 5865 5867 5868 5869 5870 5870 5871 5871 5871 5870 5870 5869 5868 5867 5866 5865 5863 5862 5860 5858 5856 5854 5852 5849 5847 5844 5841 5838 5835 5831 5828 5824 5820 5816 5812 5808 5804
5848 5851 5853 5855 5857 5859 5861 5862 5863 5864 5865 5866 5866 5866 5866 5865 5865 5864 5863 5862 5861 5859 5858 5856 5854 5852 5850 5847 5845 5842 5839 5837 5834 5830 5827 5823 5819 5815 5811 5806 5801 5796 5792
5843 5846 5848 5851 5853 5854 5856 5857 5858 5859 5860 5860 5860 5861 5860 5860 5859 5858 5857 5856 5855 5853 5851 5850 5847 5845 5843 5840 5837 5834 5831 5828 5825 5822 5818 5813 5809 5805 5800 5795 5790 5785 5779
5838 5841 5843 5845 5847 5849 5850 5851 5853 5853 5854 5854 5854 5854 5854 5853 5853 5852 5851 5849 5848 5846 5845 5842 5840 5838 5835 5832 5829 5826 5823 5819 5816 5812 5808 5803 5799 5794 5789 5784 5779 5773 5768
5833 5836 5838 5840 5842 5843 5844 5846 5846 5847 5848 5848 5848 5848 5847 5847 5846 5845 5844 5842 5841 5839 5837 5835 5832 5830 5827 5824 5820 5817 5813 5809 5806 5802 5797 5793 5788 5783 5778 5772 5767 5761 5756
5828 5830 5832 5834 5836 5837 5838 5839 5840 5841 5841 5841 5841 5841 5840 5840 5838 5837 5836 5834 5833 5831 5829 5826 5824 5821 5818 5814 5811 5807 5803 5799 5795 5791 5786 5781 5776 5771 5766 5760 5754 5748 5743
5822 5824 5826 5827 5829 5830 5831 5832 5833 5834 5834 5834 5833 5833 5833 5832 5830 5829 5827 5826 5824 5822 5820 5817 5814 5811 5808 5804 5801 5797 5793 5788 5784 5779 5775 5769 5764 5759 5753 5747 5741 5735 5729
5816 5817 5819 5821 5822 5823 5824 5825 5826 5826 5826 5826 5825 5825 5824 5823 5822 5820 5819 5817 5815 5812 5810 5807 5804 5801 5797 5794 5790 5786 5781 5777 5772 5768 5762 5757 5751 5746 5740 5734 5728 5722 5715
5809 5810 5812 5813 5814 5815 5816 5817 5818 5818 5818 5817 5817 5816 5815 5814 5812 5811 5809 5807 5805 5802 5800 5797 5793 5790 5786 5782 5778 5774 5770 5765 5760 5755 5750 5744 5738 5732 5726 5720 5714 5707 5700
5802 5803 5804 5805 5806 5807 5808 5808 5809 5809 5809 5808 5808 5807 5806 5804 5803 5801 5799 5797 5794 5792 5789 5786 5782 5778 5775 5771 5766 5762 5757 5752 5747 5742 5736 5730 5724 5718 5712 5706 5699 5692 5685
5794 5795 5796 5797 5798 5799 5799 5800 5800 5800 5799 5799 5798 5797 5796 5794 5793 5791 5788 5786 5783 5781 5777 5774 5770 5766 5762 5758 5754 5749 5744 5739 5734 5728 5723 5717 5710 5704 5698 5691 5684 5676 5669
5786 5787 5788 5789 5789 5790 5790 5790 5790 5790 5790 5789 5788 5787 5785 5783 5781 5779 5777 5774 5771 5768 5765 5762 5758 5754 5750 5745 5741 5736 5731 5725 5720 5714 5708 5703 5697 5690 5683 5676 5668 5660 5652
5777 5778 5779 5779 5780 5780 5780 5780 5780 5780 5779 5778 5777 5775 5774 5772 5770 5767 5765 5762 5759 5756 5752 5749 5745 5741 5736 5732 5727 5722 5717 5711 5706 5700 5694 5688 5682 5675 5667 5660 5652 5644 5636
5768 5769 5769 5770 5770 5770 5770 5770 5769 5769 5768 5767 5765 5764 5762 5760 5757 5755 5752 5749 5746 5742 5739 5735 5731 5727 5722 5717 5712 5707 5702 5696 5691 5685 5679 5673 5666 5659 5651 5643 5635 5627 5619
5759 5759 5760 5760 5760 5760 5759 5759 5758 5757 5756 5754 5753 5751 5749 5747 5744 5742 5739 5735 5732 5729 5725 5721 5717 5712 5708 5703 5698 5692 5687 5681 5675 5669 5663 5657 5650 5642 5635 5627 5619 5611 5603
5749 5749 5749 5749 5749 5748 5748 5747 5746 5744 5743 5741 5740 5738 5735 5733 5730 5728 5725 5721 5718 5714 5710 5706 5702 5697 5692 5687 5682 5677 5671 5665 5659 5653 5647 5640 5633 5626 5618 5610 5602 5594 5587
Wind_Speed
11 10 9 7 6 5 3 2 2 2 3 3 4 4 4 5 6 6 7 7 8 7 7 7 7 7 7 7 7 7 7 7 6 6 7 7 7 7 7 8 8 9 10
13 11 10 9 7 6 5 3 2 1 1 1 2 2 3 3 4 4 5 5 6 7 7 7 7 7 7 7 8 7 8 8 8 8 8 8 8 9 9 9 10 11 12
14 13 12 10 9 7 6 5 4 2 1 1 1 1 1 2 2 2 3 4 5 5 6 7 7 8 8 8 8 8 9 9 10 9 9 10 10 10 11 11 12 13 14
16 14 13 12 10 9 8 7 6 5 3 3 2 2 2 2 2 2 3 4 5 6 6 7 7 8 9 9 9 9 10 11 11 11 11 11 11 12 13 13 14 15 16
18 16 15 13 11 10 9 9 8 7 6 5 4 4 4 3 3 4 4 5 6 7 7 7 8 9 10 11 11 11 12 13 13 13 13 13 14 15 15 16 16 17 18
18 17 16 14 13 12 11 10 10 9 8 7 6 6 5 5 5 6 6 7 7 8 9 10 10 11 12 12 12 13 14 15 15 15 16 16 16 17 17 19 19 20 21
19 18 17 15 14 13 12 11 11 10 9 9 8 8 7 7 8 8 8 9 10 10 11 12 12 13 13 14 14 15 16 17 18 18 18 19 19 20 20 21 22 23 25
20 19 18 17 16 14 14 13 12 12 11 11 10 10 10 10 10 10 11 12 12 13 13 13 14 14 15 16 16 17 18 19 20 20 20 21 21 22 22 24 25 27 28
19 19 18 17 17 16 15 15 15 14 14 13 13 12 12 12 12 13 13 14 14 15 15 15 16 17 17 18 19 20 21 21 22 22 22 23 24 25 27 28 29 31 32
20 20 19 18 18 17 17 17 16 16 16 15 15 15 15 15 15 15 16 16 17 17 17 18 19 19 20 21 22 22 23 24 24 25 25 26 27 29 30 32 33 34 35
21 20 20 19 19 19 18 18 18 17 17 17 17 17 17 17 17 18 18 18 19 19 20 21 22 22 23 24 25 25 26 27 27 28 29 31 32 33 34 36 37 39 40
22 22 21 20 20 20 20 19 19 19 19 18 18 19 19 20 20 20 20 21 21 22 22 23 24 25 26 26 27 28 29 30 31 32 33 34 36 37 38 40 41 42 43
22 22 22 22 22 22 21 21 20 20 20 20 20 21 21 22 22 22 23 23 24 24 25 26 27 27 28 29 30 31 31 32 33 34 36 37 39 40 41 42 43 45 46
24 23 22 22 22 22 22 22 22 22 22 22 22 23 23 24 24 24 25 26 26 26 27 28 29 29 30 31 32 33 34 35 36 37 39 40 41 42 43 44 45 46 47
23 23 23 23 23 23 23 23 23 23 23 23 24 24 24 25 26 27 28 28 29 29 29 30 31 32 33 33 34 36 37 38 39 40 41 42 43 44 45 46 47 47 48
23 24 24 24 24 24 24 24 25 25 25 25 25 26 26 27 28 28 30 31 31 32 32 32 33 34 35 36 36 38 39 40 40 41 43 44 45 46 47 47 48 49 50
23 24 24 24 25 25 25 26 26 26 27 27 27 28 28 29 30 31 31 32 33 34 34 35 36 37 37 38 39 40 41 42 43 44 45 47 47 48 49 49 50 50 51
24 24 25 25 25 26 26 27 27 28 28 29 29 30 30 31 32 33 33 34 35 35 36 37 38 39 40 40 41 42 43 44 46 47 48 49 49 50 51 51 51 52 53
25 25 26 26 27 28 28 28 29 30 30 30 31 31 32 32 33 34 34 35 36 37 38 39 40 41 42 43 44 45 46 47 48 49 50 50 51 51 52 52 53 54 55
27 27 27 28 28 29 29 30 30 31 31 31 32 33 33 34 35 36 36 37 38 39 40 41 42 43 43 45 46 47 48 49 50 51 52 52 52 52 53 54 55 57 58
27 28 28 29 29 30 30 31 31 32 32 32 33 34 35 36 37 38 39 40 41 41 42 43 43 44 45 46 48 49 50 51 52 53 53 53 53 54 55 57 59 60 61
28 29 29 30 30 31 31 32 32 33 33 34 35 37 38 38 39 40 41 42 43 43 44 45 45 47 48 48 49 50 51 52 52 53 53 54 55 56 58 60 61 62 62
29 30 31 31 31 32 33 33 34 35 36 37 38 39 40 41 41 42 43 44 44 45 46 47 48 49 49 50 51 52 52 53 53 54 54 55 57 59 61 62 62 63 63
30 31 31 32 33 33 34 35 36 37 38 39 40 41 41 42 43 43 44 45 46 47 48 48 49 50 51 51 52 53 54 54 55 55 57 58 60 62 63 63 63 63 63
32 32 33 34 35 36 36 37 38 39 40 41 42 42 43 44 45 45 46 47 48 49 49 50 51 52 52 53 54 54 55 55 56 57 59 61 62 63 63 63 63 62 61
34 35 35 36 37 38 39 40 41 42 42 43 44 44 45 46 47 48 49 49 49 50 51 52 53 53 54 55 55 55 56 56 58 59 61 61 62 63 63 63 62 61 61
Wind_Direction
202 202 200 199 196 190 180 163 125 98 88 83 79 74 67 61 58 57 55 54 52 48 44 40 33 27 21 16 13 8 7 2 351 342 332 325 320 316 313 307 301 295 288
205 205 205 204 203 201 198 198 197 158 106 87 73 61 50 47 47 49 50 46 42 37 33 29 23 17 12 8 4 3 2 357 349 341 334 325 317 312 308 304 301 297 292
209 209 207 209 212 210 210 215 219 220 233 269 323 350 7 10 15 23 25 22 17 14 12 11 10 7 3 0 358 356 352 350 346 338 332 327 321 315 311 306 301 297 295
212 212 210 212 216 217 219 224 228 233 244 260 277 279 294 316 330 341 348 350 351 354 350 352 355 352 349 347 345 342 341 339 338 335 332 327 323 319 315 311 307 303 299
214 214 213 215 219 223 226 229 232 236 245 257 270 271 278 287 300 316 322 325 329 332 332 332 335 334 334 334 333 332 330 329 328 328 327 323 320 317 314 312 309 305 303
214 215 217 220 223 227 230 232 235 240 246 256 265 267 271 280 291 303 308 311 316 319 321 322 323 324 325 326 324 325 324 324 322 320 320 319 316 315 312 308 305 302 300
216 218 220 223 226 228 232 236 239 244 248 253 260 266 271 278 286 293 298 303 306 309 311 314 315 315 316 317 316 318 319 319 318 317 316 313 311 310 309 307 305 302 300
219 222 223 227 229 231 234 237 241 247 251 254 259 265 271 278 284 290 294 297 301 303 305 307 309 311 313 314 313 315 316 316 316 316 313 311 310 309 308 308 306 303 301
223 225 225 228 231 235 238 241 244 248 252 256 259 264 270 276 282 288 292 295 297 299 300 301 304 306 308 309 309 310 312 312 313 313 311 310 309 308 308 307 305 303 301
226 228 229 232 235 238 241 243 247 250 253 256 260 265 270 275 280 286 290 292 294 296 297 299 300 302 304 305 306 307 309 309 310 309 308 307 306 306 306 306 305 303 301
228 230 232 234 238 241 243 245 248 251 255 259 263 267 271 275 279 284 288 290 292 294 296 298 299 300 302 303 304 304 306 308 308 308 307 306 305 305 306 306 305 305 303
231 233 234 237 239 242 245 247 250 253 256 260 265 269 272 276 279 283 286 288 290 293 295 296 298 299 300 302 303 303 303 305 306 306 306 306 305 305 305 305 305 306 305
232 234 237 239 242 244 247 249 252 255 258 262 266 270 274 277 279 282 285 286 289 291 293 295 297 298 300 301 302 302 303 304 305 306 306 307 306 306 305 305 305 305 306
235 236 238 241 243 246 249 251 254 257 260 264 267 271 275 277 281 284 285 286 289 291 293 295 296 298 299 300 302 302 303 303 304 305 306 307 307 307 306 306 306 306 306
237 238 240 244 246 249 251 254 256 259 262 266 269 273 275 278 281 284 286 287 289 291 293 295 296 297 299 300 301 302 303 303 304 304 305 306 306 307 307 307 307 306 306
239 241 244 247 250 253 255 257 259 261 264 267 271 274 276 279 282 285 287 289 290 292 294 295 296 297 298 299 300 301 302 303 303 304 305 305 306 307 307 307 307 306 306
243 245 247 250 252 255 258 259 261 263 265 268 271 274 277 280 283 286 288 290 291 293 294 295 296 297 298 299 300 301 302 303 304 304 305 305 306 306 307 307 306 306 306
247 249 251 253 255 257 259 261 263 266 268 270 273 276 279 281 283 286 288 290 291 293 294 294 295 297 298 299 300 300 301 302 303 304 304 305 305 305 305 305 305 306 306
252 253 254 256 258 259 261 263 266 268 270 272 274 277 279 281 284 287 289 290 292 293 294 294 295 296 297 298 299 300 301 301 302 303 304 305 304 304 305 305 305 306 306
254 255 257 259 260 262 263 265 267 269 271 273 276 278 280 282 285 287 288 290 291 292 293 295 295 296 296 298 299 300 300 301 302 303 304 305 305 304 304 305 305 306 306
257 258 259 260 261 263 265 267 268 270 272 275 277 279 281 283 285 286 287 289 291 292 294 295 296 297 298 299 299 300 300 301 302 302 303 304 304 305 305 306 306 306 306
259 260 262 262 263 265 267 268 270 272 274 276 278 280 282 284 286 287 288 289 291 292 294 295 296 296 297 298 299 300 301 302 302 302 303 304 304 305 306 307 307 307 307
260 262 263 263 265 266 268 269 271 273 275 278 279 281 283 285 286 287 288 289 291 292 294 295 296 296 297 298 299 300 301 302 302 302 303 304 305 306 306 307 307 307 307
263 264 264 265 267 269 270 271 273 275 277 279 281 282 284 285 286 287 288 289 291 292 293 294 295 296 297 298 299 300 301 301 301 302 303 304 305 306 306 306 307 307 307
265 266 267 268 269 270 271 273 274 276 278 279 281 282 283 285 286 287 289 290 291 292 293 294 295 296 297 298 299 299 300 301 301 302 303 304 305 306 306 307 307 307 307
267 268 269 270 272 272 274 275 277 278 279 280 281 282 283 285 286 288 289 290 291 292 293 294 295 295 296 297 298 299 299 300 301 302 303 304 305 306 307 307 307 306 307